SCP
0 0 0 0 0 0 0 0 0 0 0 0 -0 -0 0 -0 -0 -0 -0 0 0 0 0 0 0 0 0 0 0 -0 -0 -0 -0 0 0 0 0 0 0 0 0 0 0
0 0 0 0 0 0 0 0 0 0 0 0 -0 -0 0 0 -0 -0 -0 -0 0 0 0 0 0 0 0 0 0 -0 -0 -0 -0 0 0 0 0 0 0 0 0 0 0
0 0 0 0 0 0 0 0 0 0 0 0 -0 -0 -0 -0 -0 -0 -0 -0 -0 0 0 0 -0 0 0 0 0 -0 -0 -0 0 0 0 0 0 0 0 0 0 0 0
0 0 0 0 0 0 0 -0 -0 0 0 0 -0 -0 -0 -0 -0 -0 -0 -0 -0 -0 0 0 -0 -0 0 0 0 0 -0 0 0 0 0 0 0 0 0 0 0 0 0
0 0 0 0 0 0 -0 -0 -0 -0 0 0 -0 -0 -0 -0 -0 -0 -0 -0 -0 -0 -0 -0 -0 -0 -0 0 0 0 0 0 0 0 0 0 0 0 0 0 0 0 0
0 0 0 0 0 -0 -0 -0 -0 -0 0 0 -0 -0 -0 -0 -0 -0 -0 -0 -0 -0 -0 -0 -0 -0 -0 0 0 0 0 0 0 0 0 0 0 0 0 0 0 0 0
0 0 0 0 -0 -0 -0 -0 -0 -0 0 0 -0 -0 -0 -0 -0 -0 -0 -0 -0 -0 -0 -0 -0 -0 -0 -0 0 0 0 0 0 -0 -0 0 0 0 0 -0 -0 -0 0
0 0 0 -0 -0 -0 -0 -0 -0 -0 -0 -0 -0 -0 -0 -0 -0 -0 -0 -0 -0 -0 -0 -0 -0 -0 -0 -0 -0 -0 -0 0 -0 -0 -0 -0 0 0 -0 -0 -0 -0 -0
0 0 0 -0 -0 -0 -0 -0 -0 -0 -0 -0 -0 -0 0 0 0 0 -0 -0 -0 -0 -0 -0 -0 -0 -0 -0 -0 -0 -0 -0 -0 -0 -0 -0 0 0 -0 -0 -0 -0 0
0 0 0 0 -0 -0 -0 -0 -0 -0 -0 -0 -0 -0 0 0 0 0 0 -0 -0 -0 -0 -0 -0 -0 -0 -0 -0 -0 -0 -0 -0 -0 -0 0 0 0 -0 -0 0 0 0
0 0 0 0 0 -0 -0 -0 -0 -0 -0 -0 -0 -0 0 0 0 0 0 -0 -0 -0 -0 -0 -0 -0 0 0 0 0 0 0 -0 -0 0 0 0 0 -0 0 0 0 0
0 0 0 0 0 0 -0 -0 -0 -0 -0 -0 -0 0 -0 0 0 0 0 -0 -0 -0 -0 -0 -0 -0 -0 -0 0 0 0 0 -0 -0 0 0 0 0 0 0 0 0 0
0 0 0 0 0 0 -0 -0 -0 -0 -0 -0 -0 -0 -0 -0 0 -0 -0 -0 -0 -0 -0 -0 -0 -0 -0 -0 -0 -0 -0 -0 -0 -0 0 0 0 0 0 0 0 0 0
0 0 0 0 -0 -0 -0 -0 -0 -0 -0 -0 -0 -0 -0 -0 -0 -0 -0 -0 -0 -0 -0 -0 -0 -0 -0 -0 -0 -0 -0 -0 -0 -0 -0 0 0 0 0 0 0 0 0
0 0 0 -0 -0 -0 -0 -0 -0 -0 -0 -0 -0 -0 -0 -0 -0 -0 -0 -0 -0 -0 -0 -0 -0 -0 -0 -0 -0 -0 -0 -0 -0 -0 -0 -0 0 0 0 0 0 0 0
0 0 0 0 -0 -0 -0 -0 -0 -0 -0 -0 -0 -0 -0 -0 -0 -0 -0 -0 -0 -0 -0 -0 -0 -0 -0 -0 -0 -0 -0 -0 -0 -0 -0 -0 0 0 0 0 0 0 0
0 0 0 0 0 -0 -0 -0 -0 -0 -0 -0 -0 -0 -0 -0 -0 -0 -0 -0 -0 -0 -0 -0 -0 -0 -0 -0 -0 -0 -0 -0 -0 -0 -0 -0 -0 0 0 0 0 0 0
0 0 0 0 0 -0 -0 -0 -0 -0 -0 -0 -0 -0 -0 -0 -0 -0 -0 -0 -0 -0 -0 -0 -0 -0 -0 -0 -0 -0 -0 -0 -0 -0 -0 -0 -0 0 0 0 0 0 0
0 0 0 0 0 -0 -0 -0 -0 -0 -0 -0 -0 -0 -0 -0 -0 -0 -0 -0 -0 -0 -0 -0 -0 -0 -0 -0 -0 -0 -0 -0 -0 -0 -0 -0 -0 -0 0 0 0 0 0
0 0 0 0 0 0 0 0 -0 -0 -0 -0 -0 -0 -0 -0 -0 -0 -0 -0 -0 -0 -0 -0 -0 -0 -0 -0 -0 -0 -0 -0 -0 -0 -0 -0 -0 -0 -0 0 0 0 0
0 0 0 0 0 0 0 0 0 0 0 -0 -0 -0 -0 -0 -0 -0 -0 -0 -0 -0 -0 -0 -0 -0 -0 -0 -0 0 0 0 0 0 -0 -0 -0 -0 -0 -0 0 0 0
0 0 0 0 0 0 0 0 0 0 0 0 0 0 0 -0 -0 -0 -0 -0 -0 -0 -0 -0 -0 -0 -0 -0 0 0 0 0 0 0 0 -0 -0 -0 -0 -0 -0 -0 0
0 0 0 0 0 0 0 0 0 0 0 0 0 0 0 0 0 0 0 0 0 0 0 0 0 0 0 0 0 0 0 0 0 0 0 0 -0 -0 -0 -0 -0 -0 -0
0 0 0 0 0 1 0 0 0 0 0 0 0 0 0 0 0 0 0 0 0 0 0 0 0 0 0 0 0 0 0 0 0 0 0 0 0 -0 -0 -0 -0 -0 -0
0 0 0 0 1 1 1 1 0 0 0 0 0 0 0 0 0 0 0 0 0 0 0 0 0 0 0 0 0 0 0 0 0 0 0 0 0 0 0 -0 -0 -0 -0
0 0 0 0 1 1 1 1 0 0 0 0 0 0 0 0 0 0 0 0 0 0 0 0 0 0 0 0 0 0 0 0 0 0 0 0 0 0 0 0 0 -0 -0
Wind_Speed
6 8 10 8 8 9 10 10 11 11 11 11 11 11 11 10 10 9 9 9 9 9 10 10 10 10 10 10 10 10 10 9 9 9 9 9 9 9 9 9 9 8 9
8 9 10 8 8 9 10 10 10 11 11 11 11 10 10 10 9 9 8 9 9 9 10 10 10 10 9 9 9 9 9 9 9 9 9 9 9 9 8 7 4 6 9
8 10 10 8 9 9 9 9 10 10 10 10 10 10 9 9 9 8 8 8 9 9 9 9 9 9 9 9 9 9 9 8 8 8 8 7 9 9 8 7 6 7 8
9 9 9 10 9 9 9 9 9 10 10 10 10 9 9 9 8 8 8 8 9 9 9 9 9 9 9 8 8 8 7 7 7 7 6 5 7 10 8 8 7 7 7
8 9 11 9 9 8 8 8 9 9 9 9 9 9 9 8 8 8 8 7 8 8 8 8 8 8 8 7 7 6 6 6 7 7 3 4 5 9 8 8 7 7 7
9 9 11 8 8 8 7 8 8 8 8 8 8 8 8 8 8 8 7 6 6 7 7 7 7 7 7 6 6 5 5 6 8 5 4 4 5 8 7 7 7 7 7
8 8 10 8 8 8 7 7 7 8 8 8 8 7 8 8 8 7 6 6 6 6 6 6 6 6 6 5 5 5 5 5 5 3 3 3 5 7 6 6 6 7 7
8 8 10 10 8 8 7 7 7 7 7 7 7 7 7 7 7 6 6 5 5 5 5 5 5 5 4 4 4 5 5 6 5 3 4 3 7 7 6 6 6 6 7
7 7 7 8 8 9 8 7 7 6 6 7 7 7 7 6 6 6 5 4 4 4 4 4 5 5 4 4 4 4 4 5 6 3 4 4 8 7 7 6 7 7 7
6 6 6 6 5 6 8 8 6 6 6 6 7 6 6 6 7 6 6 5 3 3 3 4 5 5 5 4 4 4 5 7 6 4 3 5 9 7 7 7 7 7 8
5 5 5 5 5 5 5 8 7 7 6 6 7 7 5 4 5 5 5 5 3 3 3 4 4 4 5 7 7 6 7 5 3 2 2 8 8 7 7 7 7 7 8
5 5 4 4 4 4 4 5 3 4 5 3 3 4 2 2 1 2 7 4 3 3 4 5 4 6 8 5 7 9 5 5 4 3 3 8 6 7 7 8 8 7 8
4 4 5 4 3 3 3 2 2 2 3 3 4 3 2 1 1 1 2 5 5 5 3 5 6 3 2 1 2 4 3 3 2 2 4 8 6 7 8 8 8 8 8
4 4 4 4 4 2 1 2 2 2 2 2 3 2 2 1 0 0 0 0 1 1 1 1 1 1 2 3 3 4 4 4 3 2 4 8 6 6 7 7 7 7 7
4 3 4 3 3 3 2 1 1 1 1 2 1 1 1 1 1 0 0 1 1 1 1 1 1 1 2 3 4 3 4 4 3 3 3 8 7 6 6 7 7 7 7
4 3 3 4 4 3 2 2 1 1 1 0 1 1 1 1 0 1 1 1 1 1 1 1 1 2 2 2 3 3 4 4 3 4 3 6 8 7 6 6 7 7 7
3 3 3 4 4 3 2 1 1 1 0 0 0 1 1 1 0 1 1 1 1 1 1 2 2 2 3 3 3 4 4 4 3 3 3 3 4 8 7 6 6 7 7
3 4 3 3 4 3 2 1 0 0 0 1 1 1 1 1 1 2 2 1 1 2 1 2 2 3 2 3 3 3 3 3 3 4 3 3 3 3 7 8 6 6 7
4 4 4 3 3 3 3 2 1 1 1 1 1 1 1 1 1 2 2 1 2 2 2 3 1 2 3 3 4 4 3 3 2 3 3 3 3 3 3 7 8 7 6
4 5 5 5 4 3 3 2 1 1 1 1 1 1 1 1 2 3 2 2 3 2 2 2 2 3 3 4 5 2 3 3 3 2 4 3 3 4 3 3 5 7 8
4 4 5 5 4 3 2 2 1 1 1 1 1 1 2 2 2 3 3 2 3 2 3 3 3 3 3 3 3 3 3 4 3 3 3 2 2 2 2 2 3 3 5
5 5 5 5 4 4 3 2 1 0 1 0 1 0 1 2 3 3 3 3 2 2 3 3 3 4 3 2 3 3 3 3 3 2 2 3 3 3 3 3 3 3 3
5 5 4 4 4 4 3 2 1 1 1 1 1 1 1 2 3 4 3 4 3 3 2 3 4 4 4 3 2 3 3 2 1 3 2 2 2 2 3 3 4 4 4
5 5 5 5 4 4 3 2 2 2 1 1 2 1 2 2 3 3 3 3 3 3 3 4 2 4 4 4 2 3 3 3 3 2 3 3 3 3 3 3 3 4 5
5 5 5 5 4 4 4 3 3 2 2 2 2 1 3 2 3 2 2 2 3 3 3 4 4 4 3 4 3 2 3 3 5 4 3 2 2 2 2 3 3 3 3
5 5 5 5 5 4 4 4 3 3 3 3 3 2 3 2 2 1 2 2 3 3 3 3 4 4 4 4 4 3 3 3 3 4 5 4 3 2 2 2 3 3 3
Wind_Direction
121 119 118 119 113 112 110 110 111 113 115 117 118 119 123 124 122 122 123 129 131 130 130 128 128 126 124 124 122 121 122 126 127 129 126 129 135 140 146 152 164 149 134
119 120 120 115 111 111 110 109 111 112 115 117 118 118 119 120 122 123 124 128 131 132 130 129 127 126 126 125 124 123 124 126 131 136 138 141 142 142 147 155 163 117 133
120 122 125 113 108 109 110 111 112 115 117 118 119 118 117 117 117 118 118 122 126 129 130 128 126 127 129 126 125 127 128 131 138 146 168 160 142 146 150 149 135 137 146
118 121 116 113 109 107 112 114 115 116 117 119 120 120 118 115 112 114 112 113 119 125 129 131 130 130 131 128 129 131 132 138 147 174 186 146 140 139 155 154 152 154 157
114 116 112 119 114 108 110 115 118 119 120 121 121 123 120 116 111 107 110 113 118 126 130 131 130 129 130 133 135 137 141 149 166 203 158 147 137 138 157 159 163 166 166
115 115 114 124 120 114 111 117 119 124 125 126 125 123 120 115 110 108 109 111 117 125 128 130 133 132 133 138 141 146 155 174 200 185 156 168 146 142 161 167 172 174 174
120 118 119 125 125 121 117 114 117 121 124 125 126 126 120 115 113 111 114 115 119 127 133 137 139 138 141 145 155 160 169 200 224 168 169 166 128 141 165 174 177 177 178
122 124 124 132 131 127 121 118 119 119 121 125 129 127 124 122 119 116 115 115 117 127 136 136 131 133 144 162 171 174 190 232 211 181 171 158 124 156 176 184 188 189 187
121 124 127 135 141 141 130 123 121 122 123 126 128 128 130 129 125 123 121 120 124 128 133 139 134 147 172 184 184 188 203 237 251 192 181 158 138 172 192 197 201 198 196
122 130 132 132 136 144 138 132 128 126 126 127 132 133 139 150 149 149 157 134 131 124 127 140 149 170 187 196 202 209 220 236 234 207 191 137 147 180 200 207 205 202 201
119 123 132 132 138 137 134 132 144 144 141 153 148 148 175 166 149 161 107 112 130 128 131 143 163 186 203 198 201 208 225 231 215 225 186 121 161 191 206 210 211 210 208
127 129 127 121 126 130 125 130 151 154 142 158 133 148 160 120 121 114 121 141 150 163 175 174 191 206 223 206 184 200 224 219 228 210 137 135 174 203 214 215 215 213 211
130 128 126 124 122 125 126 129 131 137 137 153 146 152 138 163 156 166 161 163 174 190 194 172 199 217 222 232 252 232 242 244 237 226 132 146 181 210 219 218 215 214 210
141 132 125 125 137 132 126 127 152 151 157 153 143 189 157 163 206 133 222 316 205 173 166 237 228 265 270 250 242 250 250 247 244 234 133 152 189 213 219 214 210 207 207
149 147 139 139 134 141 135 175 141 145 153 144 153 170 244 218 207 87 347 318 297 278 204 215 271 279 266 248 252 245 256 257 255 247 160 163 191 211 216 211 209 212 210
163 153 145 154 145 144 154 159 158 141 132 166 166 119 240 284 316 304 266 293 287 289 326 292 265 250 251 253 254 252 257 256 246 248 236 171 184 199 209 215 213 211 210
162 152 156 156 153 154 161 185 170 148 185 235 134 144 192 232 231 259 265 265 315 311 269 258 266 259 249 246 246 249 240 247 245 242 252 245 187 183 196 208 212 209 208
165 155 158 162 156 157 163 210 229 216 181 264 239 173 179 235 263 273 273 271 281 259 257 256 262 277 275 269 255 253 240 225 236 238 233 232 236 200 181 193 203 208 208
170 165 163 168 163 162 166 181 202 208 221 237 233 214 207 236 261 264 281 316 281 272 266 270 257 273 280 280 262 237 246 237 237 243 245 234 225 234 220 171 188 197 206
171 170 172 172 173 179 178 183 203 206 214 217 211 234 254 240 253 271 251 260 272 271 271 280 279 269 281 278 281 278 260 242 238 225 236 220 218 222 234 228 196 189 198
171 175 179 178 176 189 190 203 203 193 206 220 208 211 243 263 262 265 278 252 265 262 278 274 267 254 261 270 268 252 237 228 222 218 229 228 208 218 229 239 248 231 185
178 182 186 185 184 196 188 205 207 245 247 244 311 247 257 270 279 264 275 273 270 271 260 270 274 278 269 251 275 273 251 206 212 201 204 209 218 217 218 220 237 244 254
182 182 183 188 185 193 194 194 169 177 223 218 239 223 258 270 280 294 291 283 280 271 267 271 269 267 279 264 268 282 283 279 248 178 196 203 209 224 228 220 223 230 237
188 181 180 181 177 177 183 192 214 225 248 248 257 242 258 254 271 277 279 274 282 283 282 272 274 273 273 272 236 244 275 307 286 249 197 190 203 225 240 244 229 219 230
186 182 176 174 176 178 187 188 221 241 258 256 260 250 266 248 253 270 277 279 278 281 294 296 296 280 265 271 272 258 251 244 252 267 265 249 221 227 232 240 243 235 227
175 176 172 170 178 185 192 198 215 235 253 269 266 256 251 239 252 274 275 288 282 291 294 290 289 274 272 276 279 270 263 265 264 261 263 257 250 235 243 244 249 245 233